When you browse on this site, cookies collect data to enhance your experience and personalize the content and advertising you see.
Visit our Privacy Policy to learn more. By continuing to use the site, you agree to this use of cookies and data.
  • In United Kingdom
  • List of Countries
  • For 7 days
  • Water Temperature
  • Satellite Maps
  • Weather Map
  • Weather Widgets
  • user-avatar
    Login

    Hourly Weather Khampho

    Today, 20 July, Saturday

    Time Temperature Precipitation Wind Pressure Humidity
    00:00 +27°C° 0 mm 1 mps 733 mmHg 89%
    01:00 +27°C° 0 mm 1 mps 733 mmHg 90%
    02:00 +27°C° 0 mm 1 mps 733 mmHg 91%
    03:00 +27°C° 0 mm 2 mps 732 mmHg 92%
    04:00 +26°C° 0 mm 2 mps 732 mmHg 93%
    05:00 +27°C° 0 mm 2 mps 733 mmHg 91%
    06:00 +27°C° 0 mm 2 mps 733 mmHg 89%
    07:00 +28°C° 0 mm 2 mps 734 mmHg 87%
    08:00 +29°C° 0.1 mm 2 mps 734 mmHg 81%
    09:00 +31°C° 0.1 mm 3 mps 734 mmHg 75%
    10:00 +33°C° 0.1 mm 3 mps 734 mmHg 68%
    11:00 +34°C° 0.1 mm 3 mps 734 mmHg 65%
    12:00 +35°C° 0.1 mm 3 mps 733 mmHg 61%
    13:00 +36°C° 0.1 mm 3 mps 733 mmHg 58%
    14:00 +35°C° 0.1 mm 3 mps 732 mmHg 60%
    15:00 +35°C° 0.1 mm 2 mps 732 mmHg 61%
    16:00 +35°C° 0.1 mm 2 mps 731 mmHg 63%
    17:00 +32°C° 0 mm 2 mps 731 mmHg 68%
    18:00 +31°C° 0 mm 1 mps 731 mmHg 74%
    19:00 +30°C° 0 mm 1 mps 732 mmHg 80%
    20:00 +29°C° 0 mm 1 mps 732 mmHg 82%
    21:00 +29°C° 0 mm 1 mps 733 mmHg 83%
    22:00 +28°C° 0 mm 1 mps 733 mmHg 85%
    23:00 +28°C° 0.1 mm 1 mps 733 mmHg 87%

    Tomorrow, 21 July, Sunday

    Time Temperature Precipitation Wind Pressure Humidity
    00:00 +28°C° 0.1 mm 1 mps 733 mmHg 89%
    01:00 +27°C° 0.1 mm 1 mps 733 mmHg 90%
    02:00 +27°C° 0.1 mm 1 mps 733 mmHg 91%
    03:00 +27°C° 0.1 mm 1 mps 733 mmHg 93%
    04:00 +26°C° 0.1 mm 1 mps 733 mmHg 94%
    05:00 +27°C° 0 mm 1 mps 733 mmHg 92%
    06:00 +27°C° 0 mm 2 mps 733 mmHg 91%
    07:00 +28°C° 0 mm 2 mps 734 mmHg 89%
    08:00 +29°C° 0.3 mm 2 mps 734 mmHg 82%
    09:00 +31°C° 0.3 mm 3 mps 734 mmHg 75%
    10:00 +33°C° 0.3 mm 4 mps 734 mmHg 68%
    11:00 +34°C° 0.3 mm 3 mps 734 mmHg 65%
    12:00 +35°C° 0.3 mm 3 mps 733 mmHg 63%
    13:00 +35°C° 0.3 mm 3 mps 733 mmHg 60%
    14:00 +35°C° 0.4 mm 3 mps 732 mmHg 62%
    15:00 +35°C° 0.4 mm 3 mps 732 mmHg 65%
    16:00 +34°C° 0.4 mm 3 mps 731 mmHg 67%
    17:00 +32°C° 1.2 mm 2 mps 731 mmHg 74%
    18:00 +30°C° 1.2 mm 2 mps 732 mmHg 82%
    19:00 +28°C° 1.2 mm 2 mps 732 mmHg 90%
    20:00 +28°C° 1.7 mm 2 mps 732 mmHg 91%
    21:00 +27°C° 1.7 mm 2 mps 733 mmHg 92%
    22:00 +27°C° 1.7 mm 1 mps 734 mmHg 93%
    23:00 +27°C° 2.5 mm 2 mps 733 mmHg 94%

    Day after tomorrow, 22 July, Monday

    Time Temperature Precipitation Wind Pressure Humidity
    00:00 +26°C° 2.5 mm 2 mps 733 mmHg 96%
    01:00 +26°C° 2.5 mm 2 mps 733 mmHg 98%
    02:00 +26°C° 0.9 mm 2 mps 733 mmHg 97%
    03:00 +26°C° 0.9 mm 2 mps 733 mmHg 97%
    04:00 +26°C° 0.9 mm 1 mps 733 mmHg 96%
    05:00 +26°C° 0.3 mm 2 mps 733 mmHg 96%
    06:00 +26°C° 0.3 mm 2 mps 733 mmHg 95%
    07:00 +26°C° 0.3 mm 2 mps 733 mmHg 95%
    08:00 +26°C° 0.1 mm 2 mps 734 mmHg 94%
    09:00 +27°C° 0.1 mm 2 mps 734 mmHg 93%
    10:00 +27°C° 0.1 mm 2 mps 734 mmHg 91%
    11:00 +28°C° 0.7 mm 2 mps 733 mmHg 89%
    12:00 +29°C° 0.7 mm 2 mps 733 mmHg 86%
    13:00 +30°C° 0.7 mm 2 mps 732 mmHg 84%
    14:00 +28°C° 3.6 mm 2 mps 732 mmHg 88%
    15:00 +27°C° 3.6 mm 2 mps 732 mmHg 91%
    16:00 +26°C° 3.6 mm 2 mps 731 mmHg 95%
    17:00 +26°C° 1.8 mm 2 mps 732 mmHg 96%
    18:00 +26°C° 1.7 mm 2 mps 732 mmHg 96%
    19:00 +26°C° 1.7 mm 2 mps 733 mmHg 97%
    20:00 +26°C° 0.5 mm 3 mps 733 mmHg 97%
    21:00 +26°C° 0.5 mm 3 mps 734 mmHg 97%
    22:00 +25°C° 0.5 mm 3 mps 734 mmHg 97%
    23:00 +25°C° 2.3 mm 3 mps 734 mmHg 97%

    23 July, Tuesday

    Time Temperature Precipitation Wind Pressure Humidity
    00:00 +25°C° 2.3 mm 3 mps 734 mmHg 97%
    01:00 +25°C° 2.3 mm 3 mps 734 mmHg 97%
    02:00 +24°C° 1.9 mm 3 mps 733 mmHg 97%
    03:00 +24°C° 1.9 mm 3 mps 733 mmHg 97%
    04:00 +24°C° 1.9 mm 2 mps 733 mmHg 97%
    05:00 +24°C° 1 mm 2 mps 733 mmHg 97%
    06:00 +24°C° 1 mm 2 mps 734 mmHg 98%
    07:00 +24°C° 1 mm 1 mps 734 mmHg 98%
    08:00 +24°C° 0.6 mm 1 mps 734 mmHg 98%
    09:00 +24°C° 0.6 mm 1 mps 734 mmHg 97%
    10:00 +24°C° 0.6 mm 1 mps 734 mmHg 97%
    11:00 +24°C° 0 mm 1 mps 734 mmHg 97%
    12:00 +24°C° 0 mm 1 mps 733 mmHg 96%
    13:00 +24°C° 0 mm 1 mps 733 mmHg 95%
    14:00 +25°C° 0 mm 1 mps 733 mmHg 95%
    15:00 +25°C° 0 mm 1 mps 733 mmHg 94%
    16:00 +25°C° 0 mm 1 mps 732 mmHg 93%
    17:00 +25°C° 0 mm 1 mps 733 mmHg 93%
    18:00 +23°C° 0 mm 0 mps 733 mmHg 93%
    19:00 +22°C° 0 mm 0 mps 733 mmHg 93%
    20:00 +22°C° 0 mm 0 mps 733 mmHg 93%
    21:00 +22°C° 0 mm 0 mps 733 mmHg 92%
    22:00 +22°C° 0 mm 0 mps 734 mmHg 92%
    23:00 +22°C° 0 mm 0 mps 733 mmHg 92%

    24 July, Wednesday

    Time Temperature Precipitation Wind Pressure Humidity
    00:00 +22°C° 0 mm 0 mps 733 mmHg 92%
    01:00 +22°C° 0 mm 0 mps 733 mmHg 91%
    02:00 +22°C° 0.4 mm 0 mps 733 mmHg 93%
    03:00 +21°C° 0.4 mm 0 mps 733 mmHg 94%
    04:00 +21°C° 0.4 mm 0 mps 733 mmHg 96%
    05:00 +23°C° 0.8 mm 1 mps 733 mmHg 96%
    06:00 +23°C° 0.8 mm 1 mps 734 mmHg 96%
    07:00 +24°C° 0.8 mm 1 mps 734 mmHg 96%
    08:00 +25°C° 0 mm 1 mps 734 mmHg 92%
    09:00 +26°C° 0 mm 1 mps 735 mmHg 87%
    10:00 +27°C° 0 mm 1 mps 735 mmHg 82%
    11:00 +29°C° 0.1 mm 2 mps 735 mmHg 76%
    12:00 +30°C° 0.1 mm 3 mps 734 mmHg 70%
    13:00 +32°C° 0.1 mm 4 mps 734 mmHg 64%
    14:00 +31°C° 0.2 mm 3 mps 733 mmHg 65%
    15:00 +31°C° 0.2 mm 3 mps 733 mmHg 67%
    16:00 +30°C° 0.2 mm 3 mps 733 mmHg 69%
    17:00 +29°C° 0 mm 2 mps 733 mmHg 74%
    18:00 +27°C° 0 mm 1 mps 733 mmHg 79%
    19:00 +26°C° 0 mm 1 mps 733 mmHg 84%
    20:00 +26°C° 0 mm 1 mps 734 mmHg 84%
    21:00 +26°C° 0 mm 1 mps 735 mmHg 83%
    22:00 +26°C° 0 mm 1 mps 735 mmHg 83%
    23:00 +23°C° 0 mm 0 mps 735 mmHg 83%

    25 July, Thursday

    Time Temperature Precipitation Wind Pressure Humidity
    00:00 +23°C° 0 mm 0 mps 735 mmHg 83%
    01:00 +23°C° 0 mm 0 mps 734 mmHg 84%
    02:00 +23°C° 0 mm 0 mps 734 mmHg 84%
    03:00 +23°C° 0 mm 0 mps 734 mmHg 85%
    04:00 +23°C° 0 mm 0 mps 735 mmHg 86%
    05:00 +23°C° 0 mm 0 mps 735 mmHg 86%
    06:00 +24°C° 0 mm 0 mps 735 mmHg 85%
    07:00 +24°C° 0 mm 0 mps 735 mmHg 85%
    08:00 +27°C° 0 mm 1 mps 736 mmHg 79%
    09:00 +28°C° 0 mm 1 mps 736 mmHg 73%
    10:00 +30°C° 0 mm 1 mps 736 mmHg 68%
    11:00 +31°C° 0 mm 2 mps 736 mmHg 63%
    12:00 +32°C° 0 mm 2 mps 735 mmHg 58%
    13:00 +35°C° 0 mm 3 mps 735 mmHg 53%
    14:00 +34°C° 0 mm 3 mps 734 mmHg 55%
    15:00 +34°C° 0 mm 2 mps 734 mmHg 58%
    16:00 +34°C° 0 mm 2 mps 733 mmHg 60%
    17:00 +31°C° 0 mm 2 mps 733 mmHg 66%
    18:00 +30°C° 0 mm 1 mps 734 mmHg 73%
    19:00 +28°C° 0 mm 1 mps 734 mmHg 80%
    20:00 +28°C° 0 mm 1 mps 734 mmHg 81%
    21:00 +27°C° 0 mm 1 mps 735 mmHg 82%
    22:00 +25°C° 0 mm 0 mps 736 mmHg 83%
    23:00 +24°C° 0 mm 0 mps 735 mmHg 84%
    Show more